When you browse on this site, cookies collect data to enhance your experience and personalize the content and advertising you see.
Visit our Privacy Policy to learn more. By continuing to use the site, you agree to this use of cookies and data.
  • In Latvia
  • List of Countries
  • For 7 days
  • Water Temperature
  • Weather Map
  • Weather Widgets
  • user-avatar
    Login

    Hourly Weather Shusha

    Today, 18 January, Saturday

    Time Temperature Precipitation Wind Pressure Humidity
    00:00 -2°C° 0 mm 1 mps 658 mmHg 71%
    01:00 -2°C° 0 mm 1 mps 658 mmHg 70%
    02:00 -2°C° 0 mm 1 mps 658 mmHg 69%
    03:00 -2°C° 0 mm 1 mps 658 mmHg 62%
    04:00 -2°C° 0 mm 1 mps 658 mmHg 61%
    05:00 -2°C° 0 mm 1 mps 658 mmHg 60%
    06:00 -2°C° 0 mm 1 mps 658 mmHg 59%
    07:00 -3°C° 0 mm 0 mps 658 mmHg 58%
    08:00 -2°C° 0 mm 0 mps 658 mmHg 57%
    09:00 -1°C° 0 mm 0 mps 659 mmHg 55%
    10:00 +1°C° 0 mm 1 mps 659 mmHg 56%
    11:00 +1°C° 0 mm 1 mps 659 mmHg 58%
    12:00 +2°C° 0 mm 1 mps 659 mmHg 59%
    13:00 +2°C° 0 mm 1 mps 659 mmHg 63%
    14:00 +2°C° 0 mm 1 mps 659 mmHg 67%
    15:00 -1°C° 0 mm 2 mps 659 mmHg 72%
    16:00 +1°C° 0 mm 1 mps 659 mmHg 79%
    17:00 0°C° 0 mm 1 mps 659 mmHg 85%
    18:00 -1°C° 0 mm 1 mps 659 mmHg 92%
    19:00 -1°C° 0.1 mm 1 mps 659 mmHg 93%
    20:00 -2°C° 0.1 mm 0 mps 659 mmHg 93%
    21:00 -2°C° 0.1 mm 0 mps 659 mmHg 94%
    22:00 -3°C° 0.1 mm 0 mps 659 mmHg 94%
    23:00 -3°C° 0.1 mm 0 mps 659 mmHg 94%

    Tomorrow, 19 January, Sunday

    Time Temperature Precipitation Wind Pressure Humidity
    00:00 -3°C° 0.1 mm 0 mps 659 mmHg 95%
    01:00 -3°C° 0.1 mm 0 mps 659 mmHg 95%
    02:00 -3°C° 0.1 mm 0 mps 659 mmHg 95%
    03:00 -2°C° 0.1 mm 1 mps 659 mmHg 95%
    04:00 -2°C° 0.2 mm 1 mps 660 mmHg 95%
    05:00 -3°C° 0.2 mm 1 mps 660 mmHg 95%
    06:00 -3°C° 0.2 mm 1 mps 660 mmHg 96%
    07:00 -3°C° 0.2 mm 1 mps 660 mmHg 95%
    08:00 -2°C° 0.2 mm 1 mps 660 mmHg 94%
    09:00 -2°C° 0.2 mm 1 mps 661 mmHg 93%
    10:00 -2°C° 0.2 mm 1 mps 660 mmHg 93%
    11:00 -4°C° 0.2 mm 2 mps 660 mmHg 92%
    12:00 -3°C° 0.2 mm 2 mps 660 mmHg 91%
    13:00 -3°C° 0.2 mm 2 mps 660 mmHg 92%
    14:00 -4°C° 0.2 mm 2 mps 660 mmHg 92%
    15:00 -4°C° 0.2 mm 2 mps 660 mmHg 93%
    16:00 -4°C° 0.2 mm 2 mps 660 mmHg 94%
    17:00 -2°C° 0.2 mm 1 mps 661 mmHg 95%
    18:00 -3°C° 0.2 mm 1 mps 661 mmHg 96%
    19:00 -3°C° 0.2 mm 1 mps 661 mmHg 96%
    20:00 -3°C° 0.2 mm 1 mps 661 mmHg 96%
    21:00 -3°C° 0.2 mm 1 mps 662 mmHg 96%
    22:00 -3°C° 0.1 mm 1 mps 662 mmHg 96%
    23:00 -4°C° 0.1 mm 1 mps 662 mmHg 95%

    Day after tomorrow, 20 January, Monday

    Time Temperature Precipitation Wind Pressure Humidity
    00:00 -4°C° 0.1 mm 1 mps 662 mmHg 95%
    01:00 -4°C° 0 mm 1 mps 662 mmHg 94%
    02:00 -5°C° 0 mm 0 mps 662 mmHg 94%
    03:00 -5°C° 0 mm 0 mps 662 mmHg 93%
    04:00 -6°C° 0 mm 0 mps 662 mmHg 92%
    05:00 -6°C° 0 mm 0 mps 662 mmHg 91%
    06:00 -6°C° 0 mm 0 mps 662 mmHg 90%
    07:00 -5°C° 0 mm 0 mps 662 mmHg 87%
    08:00 -4°C° 0 mm 0 mps 663 mmHg 84%
    09:00 -4°C° 0 mm 0 mps 663 mmHg 81%
    10:00 -2°C° 0 mm 1 mps 663 mmHg 83%
    11:00 -2°C° 0 mm 1 mps 663 mmHg 84%
    12:00 -1°C° 0 mm 1 mps 663 mmHg 85%
    13:00 -1°C° 0 mm 1 mps 663 mmHg 86%
    14:00 -1°C° 0 mm 1 mps 662 mmHg 87%
    15:00 -1°C° 0 mm 1 mps 662 mmHg 87%
    16:00 -1°C° 0 mm 1 mps 662 mmHg 89%
    17:00 -2°C° 0 mm 1 mps 662 mmHg 91%
    18:00 -2°C° 0 mm 1 mps 662 mmHg 93%
    19:00 -3°C° 0 mm 0 mps 662 mmHg 93%
    20:00 -4°C° 0 mm 0 mps 662 mmHg 93%
    21:00 -4°C° 0 mm 0 mps 662 mmHg 93%
    22:00 -4°C° 0 mm 0 mps 662 mmHg 92%
    23:00 -4°C° 0 mm 0 mps 662 mmHg 92%

    21 January, Tuesday

    Time Temperature Precipitation Wind Pressure Humidity
    00:00 -5°C° 0 mm 0 mps 662 mmHg 92%
    01:00 -5°C° 0 mm 0 mps 662 mmHg 92%
    02:00 -5°C° 0 mm 0 mps 661 mmHg 92%
    03:00 -5°C° 0 mm 0 mps 661 mmHg 92%
    04:00 -5°C° 0 mm 0 mps 661 mmHg 91%
    05:00 -5°C° 0 mm 0 mps 661 mmHg 90%
    06:00 -5°C° 0 mm 0 mps 661 mmHg 89%
    07:00 -4°C° 0 mm 0 mps 661 mmHg 86%
    08:00 -4°C° 0 mm 0 mps 662 mmHg 83%
    09:00 -3°C° 0 mm 0 mps 662 mmHg 80%
    10:00 -1°C° 0 mm 1 mps 662 mmHg 78%
    11:00 0°C° 0 mm 1 mps 662 mmHg 77%
    12:00 +1°C° 0 mm 1 mps 662 mmHg 76%
    13:00 +1°C° 0 mm 1 mps 662 mmHg 77%
    14:00 +1°C° 0 mm 1 mps 661 mmHg 78%
    15:00 +1°C° 0 mm 1 mps 661 mmHg 78%
    16:00 0°C° 0 mm 1 mps 661 mmHg 81%
    17:00 -1°C° 0 mm 1 mps 661 mmHg 84%
    18:00 -3°C° 0 mm 0 mps 662 mmHg 87%
    19:00 -2°C° 0 mm 1 mps 662 mmHg 86%
    20:00 -2°C° 0 mm 1 mps 662 mmHg 84%
    21:00 -2°C° 0 mm 1 mps 662 mmHg 82%
    22:00 -2°C° 0 mm 1 mps 662 mmHg 79%
    23:00 -2°C° 0 mm 1 mps 662 mmHg 76%

    22 January, Wednesday

    Time Temperature Precipitation Wind Pressure Humidity
    00:00 -2°C° 0 mm 1 mps 662 mmHg 73%
    01:00 -2°C° 0 mm 1 mps 662 mmHg 72%
    02:00 -3°C° 0 mm 1 mps 662 mmHg 70%
    03:00 -3°C° 0 mm 1 mps 662 mmHg 69%
    04:00 -3°C° 0 mm 1 mps 662 mmHg 68%
    05:00 -3°C° 0 mm 1 mps 661 mmHg 68%
    06:00 -3°C° 0 mm 1 mps 661 mmHg 67%
    07:00 -2°C° 0 mm 1 mps 662 mmHg 64%
    08:00 -1°C° 0 mm 1 mps 662 mmHg 62%
    09:00 0°C° 0 mm 1 mps 662 mmHg 59%
    10:00 0°C° 0 mm 1 mps 662 mmHg 57%
    11:00 +1°C° 0 mm 1 mps 662 mmHg 56%
    12:00 +2°C° 0 mm 1 mps 662 mmHg 54%
    13:00 +2°C° 0 mm 1 mps 661 mmHg 56%
    14:00 +2°C° 0 mm 1 mps 660 mmHg 58%
    15:00 +2°C° 0 mm 1 mps 660 mmHg 60%
    16:00 +1°C° 0 mm 1 mps 660 mmHg 65%
    17:00 0°C° 0 mm 1 mps 660 mmHg 69%
    18:00 -2°C° 0 mm 0 mps 659 mmHg 74%
    19:00 -2°C° 0 mm 0 mps 659 mmHg 73%
    20:00 -3°C° 0 mm 0 mps 659 mmHg 71%
    21:00 -2°C° 0 mm 1 mps 659 mmHg 69%
    22:00 -2°C° 0 mm 1 mps 659 mmHg 68%
    23:00 -2°C° 0 mm 1 mps 659 mmHg 66%

    23 January, Thursday

    Time Temperature Precipitation Wind Pressure Humidity
    00:00 -2°C° 0 mm 1 mps 658 mmHg 64%
    01:00 -2°C° 0 mm 1 mps 658 mmHg 63%
    02:00 -2°C° 0 mm 1 mps 657 mmHg 61%
    03:00 -2°C° 0 mm 1 mps 657 mmHg 60%
    04:00 -3°C° 0 mm 1 mps 656 mmHg 60%
    05:00 -3°C° 0 mm 1 mps 656 mmHg 59%
    06:00 -3°C° 0 mm 1 mps 656 mmHg 59%
    07:00 -2°C° 0 mm 1 mps 656 mmHg 58%
    08:00 -2°C° 0 mm 0 mps 656 mmHg 56%
    09:00 -1°C° 0 mm 0 mps 656 mmHg 54%
    10:00 0°C° 0 mm 1 mps 656 mmHg 51%
    11:00 +1°C° 0 mm 1 mps 655 mmHg 48%
    12:00 +2°C° 0 mm 1 mps 654 mmHg 45%
    13:00 +2°C° 0 mm 1 mps 654 mmHg 48%
    14:00 +2°C° 0 mm 1 mps 653 mmHg 51%
    15:00 +2°C° 0 mm 1 mps 653 mmHg 54%
    16:00 +1°C° 0 mm 1 mps 653 mmHg 58%
    17:00 0°C° 0 mm 1 mps 652 mmHg 63%
    18:00 -2°C° 0 mm 0 mps 652 mmHg 68%
    19:00 -2°C° 0 mm 0 mps 652 mmHg 67%
    20:00 -2°C° 0 mm 0 mps 652 mmHg 66%
    21:00 -1°C° 0 mm 1 mps 652 mmHg 65%
    22:00 -1°C° 0 mm 1 mps 652 mmHg 64%
    23:00 -1°C° 0 mm 1 mps 652 mmHg 63%
    Show more